CAPE
0 0 0 0 0 0 0 0 0 0 0 0 0 0 138 1066 1403 1540 513 2081 1927 1973 1614 1623 1975 2340 2523 2557 2476 2489 2659 2801 2701 2391 2057 1905 1900 1907 1940 1970 2047 2024 1571 1328 1448 1790 1647 1445 1074
0 0 0 0 0 0 0 0 0 0 0 0 0 0 1075 1691 1768 2118 2214 1854 1498 2046 1563 1631 1812 2181 2153 2138 2585 2664 2849 2792 2575 2316 2108 2031 1996 1874 1764 1780 1690 1748 1520 1102 1096 1517 1606 1307 924
0 0 0 0 0 0 0 0 0 0 0 0 18 93 1405 1042 1910 2006 1814 1599 1460 2269 1677 1751 1661 1945 2036 1910 2443 2658 2713 2525 2347 2220 2177 2075 1950 1850 1825 1690 1517 1554 1316 914 964 1109 1592 1160 721
0 0 0 0 0 0 0 0 0 0 0 0 32 769 329 1584 1609 1973 1656 1503 1349 1945 1985 1282 1454 1760 2080 2038 2022 2519 2416 2228 2107 2096 2138 2043 1927 1861 1882 1637 1542 1555 1402 1105 935 1157 1129 857 397
0 0 0 0 0 0 0 0 0 0 0 0 13 340 154 415 1141 1971 1709 1706 1619 2061 2045 1594 1348 1625 2035 2302 2226 2254 2124 1983 1934 2000 2010 1960 1917 1968 1779 1530 1499 1495 1250 1125 400 1189 1168 594 238
0 0 0 0 0 0 0 0 0 0 0 0 7 363 179 404 794 1566 1859 1964 1965 2677 2352 1550 1396 1559 1752 2034 2013 1867 1780 1697 1683 1769 1824 1915 1895 1867 1651 1446 1348 1108 1008 881 771 786 904 420 133
0 0 0 0 0 0 0 0 0 0 0 0 0 12 208 276 981 1510 2153 2064 2357 2683 2710 1979 1540 1604 1510 1511 1576 1559 1526 1484 1475 1526 1554 1635 1588 1551 1432 1290 1101 713 588 592 477 549 745 287 111
0 0 0 0 0 0 0 0 0 0 0 0 0 0 7 225 646 1585 2258 2365 2500 2798 3021 2254 2004 1724 1752 1575 1195 1180 1188 1135 1175 1296 1335 1364 1313 1293 1147 1022 1026 818 679 232 581 551 219 271 63
0 0 0 0 0 0 0 0 0 0 0 0 0 0 0 0 28 1068 1998 2485 2472 2359 3022 2271 2097 1994 2030 1767 1497 924 993 942 953 1116 1154 1011 1047 1171 1142 984 786 671 330 81 448 36 27 10 0
0 0 0 2 0 0 0 0 0 0 0 0 0 0 0 0 1 141 644 2132 2583 2595 2320 2741 2211 1706 2046 1821 1845 1541 1380 1264 1122 929 1052 1100 508 665 926 1084 564 479 112 21 278 50 8 0 0
0 0 0 0 0 0 0 0 0 0 0 0 0 0 0 0 0 0 0 0 2290 2721 2406 2318 2609 2365 1919 2145 2213 1774 1470 1231 1047 875 827 829 469 619 743 482 413 205 22 0 74 18 1 1 16
0 0 0 0 0 0 0 0 0 0 0 0 0 0 0 0 0 123 177 530 748 2861 2809 2459 2346 2525 2228 1805 2327 2218 1687 1493 1253 988 949 956 680 1002 1045 517 434 347 26 40 13 29 2 0 0
0 0 0 0 0 0 0 0 0 0 0 0 0 0 0 0 0 0 0 11 140 504 1807 2726 2572 2400 2478 2233 1818 2446 1930 1782 1546 1301 1135 1033 913 1016 1187 1369 1050 679 558 157 90 62 21 0 4
0 0 0 0 0 0 0 0 0 0 0 0 0 0 0 0 0 0 0 36 268 475 669 1431 2892 2555 2092 1649 2003 1982 2025 1853 1764 1473 1322 1279 1517 1563 1468 1335 1424 1099 669 370 190 41 34 1 0
0 0 0 0 0 0 0 0 0 0 0 0 0 0 0 0 0 0 0 111 773 1723 1027 962 2825 3049 1855 1634 1595 1853 1716 1614 1451 1579 1726 1757 1833 1695 1336 1224 1077 1095 690 696 261 101 2 0 0
0 0 0 0 0 0 0 0 0 0 0 0 0 0 0 0 0 0 0 110 406 1668 2191 2316 2108 2184 1803 1722 1552 1388 1282 1451 1378 1378 1681 1671 1558 1353 1385 1307 1061 909 913 849 550 63 0 0 0
0 0 0 0 0 0 0 0 0 0 0 0 0 0 0 0 0 0 0 0 32 421 1009 1774 2458 2633 2301 1945 1471 1321 1309 1401 1424 1209 1041 1465 1370 1248 1117 1230 1163 1146 774 737 746 114 0 0 0
0 0 0 0 0 0 0 0 0 1 0 0 1 0 0 0 0 0 0 0 0 1 41 175 525 1312 2511 2548 2006 1988 1951 1863 1751 1495 1249 984 1129 1030 971 903 959 1027 916 727 789 182 0 0 0
0 0 0 2 7 0 0 0 0 0 0 3 4 0 0 0 0 0 0 0 0 0 0 0 0 0 1 338 1204 1472 1432 1398 1386 1555 1806 1564 1005 947 974 886 818 784 861 714 725 375 0 0 0
0 0 0 0 0 1 0 1 0 0 0 1 0 1 0 0 0 0 0 0 0 0 0 0 0 0 0 0 0 346 508 1208 1251 1300 1152 1293 1598 1247 893 868 760 740 747 627 532 557 0 0 0
4 2 2 0 0 4 3 0 0 0 0 0 0 0 0 0 0 0 0 0 0 0 0 0 0 0 0 0 0 0 0 488 746 602 222 674 305 523 1177 897 800 818 616 567 511 573 0 0 0
8 0 0 0 0 0 0 0 0 0 0 0 0 0 0 0 0 0 0 0 0 0 0 0 0 0 0 0 0 0 0 0 0 0 0 2 42 42 31 176 488 581 613 590 510 387 78 0 0
0 3 8 2 1 2 0 0 0 0 0 0 0 0 0 0 0 0 0 0 0 0 0 0 0 0 0 0 0 0 0 0 0 0 0 0 0 0 0 38 90 183 189 225 289 347 293 7 0
2 0 0 0 0 0 0 0 0 0 0 0 0 0 0 0 0 0 0 0 0 0 0 0 0 0 0 0 0 0 0 0 0 0 0 0 0 0 5 4 6 0 8 5 0 1 59 6 0
1 0 0 0 0 0 0 0 0 0 0 0 0 0 0 0 0 0 0 0 0 0 1 0 0 0 0 0 0 0 0 12 11 7 0 6 5 10 19 32 19 29 31 27 63 0 4 0 3
0 0 4 0 1 6 0 0 0 0 0 0 0 0 0 0 0 0 0 0 0 0 0 0 0 0 0 0 0 0 0 0 15 12 26 47 73 74 95 77 70 49 41 41 26 18 10 1 5
1 0 0 1 0 0 0 0 0 0 0 0 0 0 0 0 0 0 0 0 0 0 0 0 0 0 0 0 15 19 6 4 12 81 88 104 136 126 132 131 126 136 84 78 81 43 5 0 2
0 0 0 2 3 2 0 0 0 0 0 0 0 0 0 0 0 0 0 0 0 0 0 0 0 0 0 33 71 62 129 173 184 176 126 152 145 153 173 199 187 192 219 210 169 99 51 2 1
0 0 0 0 6 0 0 1 0 0 0 0 0 0 0 0 0 0 0 0 0 0 0 0 0 0 3 4 33 48 156 135 127 136 14 0 0 0 0 50 173 285 219 230 277 216 108 12 0
0 0 0 0 0 9 4 0 0 0 0 0 0 0 0 0 0 0 0 0 0 0 0 0 0 0 13 9 28 61 97 113 100 135 120 143 38 7 0 0 66 206 254 211 271 272 163 2 0
CIN
-0 -0 -0 -0 -0 -0 -0 -0 -0 -0 -0 -0 -0 -0 -16 -19 -8 -27 -214 -109 -129 -303 -447 -417 -304 -188 -142 -108 -87 -73 -40 -19 -13 -36 -59 -46 -29 -17 -7 -0 -0 -0 -18 -22 -4 -0 -0 -8 -45
-0 -0 -0 -0 -0 -0 -0 -0 -0 -0 -0 -0 -0 -0 -11 -26 -5 -40 -71 -143 -159 -293 -413 -396 -330 -211 -191 -172 -76 -41 -16 -16 -15 -24 -41 -41 -29 -16 -13 -1 -2 -0 -8 -40 -32 -0 -0 -0 -36
-0 -0 -0 -0 -0 -0 -0 -0 -0 -0 -0 -0 -44 -26 -38 -59 -69 -58 -118 -173 -172 -207 -318 -344 -360 -245 -206 -212 -96 -29 -14 -19 -18 -24 -26 -23 -24 -19 -18 -18 -24 -16 -23 -52 -45 -23 -0 -10 -42
-0 -0 -0 -0 -0 -0 -0 -0 -0 -0 -0 -0 -72 -53 -124 -81 -91 -95 -130 -163 -180 -195 -274 -507 -381 -304 -225 -219 -193 -81 -60 -58 -45 -31 -22 -17 -23 -15 -8 -29 -19 -7 -18 -33 -35 -10 -21 -40 -103
-0 -0 -0 -0 -0 -0 -0 -0 -0 -0 -0 -0 -95 -41 -134 -122 -109 -98 -126 -138 -188 -203 -329 -412 -423 -359 -250 -162 -153 -130 -122 -128 -109 -71 -51 -31 -26 -6 -10 -41 -35 -17 -29 -26 -119 -12 -11 -55 -147
-0 -0 -0 -0 -0 -0 -0 -0 -0 -0 -0 -0 -58 -6 -88 -127 -97 -106 -122 -147 -179 -222 -267 -415 -416 -355 -288 -196 -163 -164 -154 -147 -125 -90 -65 -43 -28 -25 -51 -58 -56 -72 -71 -80 -79 -57 -23 -97 -188
-0 -0 -0 -0 -0 -0 -0 -0 -0 -0 -0 -0 -0 -11 -68 -153 -88 -98 -115 -160 -181 -192 -215 -312 -367 -330 -320 -273 -228 -221 -200 -181 -151 -111 -80 -53 -57 -55 -83 -101 -111 -136 -138 -130 -131 -113 -48 -143 -212
-0 -0 -0 -0 -0 -0 -0 -0 -0 -0 -0 -0 -0 -0 -21 -162 -101 -97 -120 -158 -174 -145 -159 -245 -275 -299 -262 -240 -282 -247 -209 -190 -165 -127 -105 -79 -69 -58 -88 -102 -89 -120 -142 -245 -113 -113 -184 -165 -254
-0 -0 -0 -0 -0 -0 -0 -0 -0 -0 -0 -0 -0 -0 -0 -0 -194 -58 -74 -120 -150 -178 -115 -221 -209 -214 -190 -182 -208 -295 -232 -200 -164 -111 -94 -128 -114 -79 -65 -67 -102 -127 -219 -339 -146 -315 -321 -304 -0
-0 -0 -0 -2 -0 -0 -0 -0 -0 -0 -0 -0 -0 -0 -0 -0 -12 -102 -30 -48 -105 -163 -174 -135 -182 -243 -177 -168 -171 -184 -180 -176 -173 -176 -125 -74 -186 -130 -79 -66 -181 -165 -311 -424 -210 -305 -146 -0 -0
-0 -0 -0 -0 -0 -0 -0 -0 -0 -0 -0 -0 -0 -0 -0 -0 -0 -0 -0 -0 -55 -105 -135 -143 -106 -117 -145 -89 -110 -118 -129 -151 -171 -180 -166 -146 -197 -122 -96 -207 -217 -269 -373 -0 -315 -391 -0 -0 -341
-0 -0 -0 -0 -0 -0 -0 -0 -0 -0 -0 -0 -0 -0 -0 -0 -3 -217 -205 -116 -68 -27 -52 -79 -94 -64 -82 -69 -25 -56 -99 -102 -123 -146 -132 -116 -128 -45 -51 -200 -183 -190 -391 -242 -419 -377 -416 -52 -50
-0 -0 -0 -0 -0 -0 -0 -0 -0 -0 -0 -0 -0 -0 -0 -0 -0 -0 -0 -369 -257 -141 -34 -31 -41 -73 -38 -36 -36 -18 -26 -42 -72 -99 -114 -82 -79 -45 -20 -13 -39 -89 -125 -251 -318 -367 -406 -106 -376
-0 -0 -0 -0 -0 -0 -0 -0 -0 -0 -0 -0 -0 -0 -0 -0 -0 -0 -0 -345 -246 -183 -128 -65 -29 -59 -99 -82 -28 -40 -29 -34 -24 -59 -63 -89 -34 -31 -8 -14 -5 -8 -57 -148 -243 -362 -340 -261 -0
-0 -0 -0 -0 -0 -0 -0 -0 -0 -0 -0 -0 -0 -0 -0 -0 -0 -0 -0 -344 -144 -51 -121 -73 -16 -29 -122 -101 -63 -34 -40 -22 -36 -17 -31 -27 -27 -33 -20 -13 -14 -12 -33 -37 -165 -276 -301 -0 -0
-0 -0 -0 -0 -0 -0 -0 -0 -0 -0 -0 -0 -0 -0 -0 -0 -0 -0 -0 -380 -236 -69 -53 -43 -58 -68 -58 -42 -61 -59 -61 -51 -58 -54 -40 -53 -52 -35 -27 -8 -19 -34 -16 -20 -39 -221 -0 -0 -0
-0 -0 -0 -0 -0 -0 -0 -0 -0 -0 -0 -0 -0 -0 -0 -0 -0 -0 -0 -0 -550 -254 -121 -52 -22 -23 -25 -28 -46 -43 -37 -38 -43 -55 -60 -17 -41 -49 -32 -13 -12 -5 -24 -29 -26 -135 -0 -0 -0
-0 -0 -0 -0 -0 -0 -0 -0 -0 -2 -0 -0 -6 -0 -0 -0 -0 -0 -0 -0 -0 -145 -372 -343 -157 -21 -5 -11 -8 -3 -4 -9 -13 -26 -35 -46 -28 -36 -43 -53 -45 -28 -14 -13 -17 -87 -0 -0 -0
-0 -0 -1 -4 -15 -0 -0 -0 -0 -0 -0 -2 -5 -0 -0 -0 -0 -0 -0 -0 -0 -0 -0 -0 -0 -1 -0 -87 -10 -10 -10 -16 -16 -15 -4 -12 -38 -39 -27 -32 -31 -39 -22 -13 -10 -26 -0 -0 -0
-0 -0 -0 -0 -0 -1 -0 -0 -0 -0 -0 -0 -0 -17 -0 -0 -0 -0 -0 -0 -0 -0 -0 -0 -0 -0 -0 -0 -0 -64 -52 -10 -18 -11 -20 -9 -4 -19 -20 -10 -17 -19 -18 -10 -13 -12 -0 -0 -0
-0 -1 -0 -0 -0 -1 -1 -0 -0 -0 -0 -0 -0 -0 -0 -0 -0 -0 -0 -0 -0 -0 -0 -0 -0 -0 -0 -0 -0 -0 -0 -67 -24 -16 -70 -38 -85 -58 -5 -4 -3 -4 -14 -1 -6 -1 -0 -0 -0
-0 -0 -0 -0 -0 -0 -0 -0 -0 -0 -0 -0 -0 -0 -0 -0 -0 -0 -0 -0 -0 -0 -0 -0 -0 -0 -0 -0 -0 -0 -0 -0 -0 -0 -0 -61 -99 -104 -138 -71 -8 -6 -4 -9 -8 -12 -78 -0 -0
-0 -0 -0 -1 -0 -0 -0 -0 -0 -0 -0 -0 -0 -0 -0 -0 -0 -0 -0 -0 -0 -0 -0 -0 -0 -0 -0 -0 -0 -0 -0 -0 -0 -0 -0 -0 -0 -0 -0 -130 -88 -50 -31 -15 -11 -0 -28 -89 -0
-1 -1 -0 -0 -0 -0 -0 -0 -0 -0 -0 -0 -0 -0 -0 -0 -0 -0 -0 -0 -0 -0 -0 -0 -0 -0 -0 -0 -0 -0 -0 -0 -0 -0 -0 -0 -0 -0 -11 -20 -18 -0 -158 -173 -0 -0 -40 -147 -11
-0 -0 -0 -0 -0 -0 -0 -0 -0 -0 -0 -0 -0 -0 -0 -0 -0 -0 -0 -0 -0 -0 -3 -0 -0 -0 -0 -0 -0 -0 -0 -48 -44 -55 -0 -23 -13 -35 -40 -41 -73 -48 -34 -17 -10 -0 -38 -0 -10
-0 -0 -0 -0 -0 -1 -0 -0 -0 -0 -0 -0 -0 -0 -0 -0 -0 -0 -0 -0 -0 -0 -0 -0 -0 -0 -0 -0 -0 -0 -0 -2 -17 -18 -17 -12 -16 -12 -16 -13 -16 -28 -32 -28 -27 -46 -67 -1 -0
-0 -0 -0 -0 -0 -0 -0 -0 -0 -0 -0 -0 -0 -0 -0 -0 -0 -0 -0 -0 -0 -0 -0 -0 -0 -0 -0 -0 -37 -36 -9 -6 -11 -17 -11 -11 -12 -8 -3 -10 -12 -9 -11 -16 -11 -23 -66 -1 -0
-0 -0 -0 -0 -0 -0 -0 -0 -0 -0 -0 -0 -0 -0 -0 -0 -0 -0 -0 -0 -0 -0 -0 -0 -0 -0 -0 -31 -30 -22 -23 -20 -21 -14 -5 -7 -10 -17 -11 -16 -13 -13 -15 -12 -12 -27 -28 -27 -1
-0 -0 -0 -0 -0 -0 -0 -2 -0 -0 -0 -0 -0 -0 -0 -0 -0 -0 -0 -0 -0 -0 -0 -0 -0 -0 -16 -16 -25 -42 -23 -28 -36 -69 -114 -0 -0 -0 -0 -1 -16 -15 -19 -18 -19 -22 -34 -108 -0
-0 -0 -0 -0 -0 -6 -4 -0 -0 -0 -0 -0 -0 -0 -0 -0 -0 -0 -0 -0 -0 -0 -0 -0 -0 -1 -19 -33 -26 -31 -30 -29 -36 -34 -38 -72 -135 -134 -0 -0 -14 -9 -15 -20 -47 -43 -44 -68 -0
Wind_Speed
9 14 10 11 7 8 15 5 10 13 9 8 5 4 9 20 14 5 2 9 8 18 16 16 14 12 13 13 12 13 14 13 12 14 15 13 12 11 10 9 9 9 9 9 9 10 11 12 11
11 18 7 7 8 12 2 13 9 11 5 7 3 6 17 20 16 15 5 7 3 18 14 14 13 13 13 14 11 12 13 13 13 13 13 13 13 11 10 9 8 8 8 8 8 8 10 10 9
12 17 8 8 11 12 7 9 14 8 2 8 2 4 10 6 14 8 8 5 5 17 14 15 14 13 13 15 13 11 12 12 11 12 12 12 12 11 10 9 8 8 8 8 8 8 10 10 7
8 9 8 8 17 10 11 13 11 1 8 6 5 13 9 12 7 8 7 8 10 14 16 19 14 14 14 16 17 14 13 12 12 12 12 12 12 11 10 9 8 7 7 7 7 6 8 9 7
9 8 9 12 17 12 7 10 2 0 8 5 10 16 16 14 13 10 8 10 10 12 15 16 16 16 15 14 15 15 14 14 14 13 13 13 13 12 10 10 9 8 6 5 6 8 8 7 7
9 6 10 12 9 7 2 7 4 3 7 8 5 9 14 13 11 9 9 9 9 15 13 12 14 14 14 15 14 13 13 13 12 12 12 13 12 12 12 11 10 10 7 7 7 6 7 8 6
12 10 13 16 2 5 8 8 6 2 1 6 5 2 13 14 11 9 8 8 8 11 12 11 10 12 11 11 11 12 12 12 12 11 11 10 11 10 11 12 11 10 8 7 6 7 9 9 8
10 11 16 13 10 5 14 8 2 6 2 8 4 2 11 12 9 10 8 7 7 6 11 10 10 11 10 8 8 9 10 9 9 10 10 9 9 8 9 9 8 10 10 8 6 8 8 8 7
8 9 12 15 10 4 12 6 6 3 7 8 4 5 6 10 4 9 10 9 8 7 8 10 8 9 9 10 9 8 8 8 7 7 8 8 7 9 9 8 9 8 10 8 7 9 10 7 6
10 11 18 7 8 4 9 7 5 6 8 10 6 8 5 2 4 9 10 14 14 13 11 11 10 7 8 10 12 11 10 8 8 9 10 7 7 7 10 11 13 11 9 7 8 9 8 8 6
15 13 17 17 7 4 10 9 9 7 10 11 5 3 2 2 5 6 7 7 17 15 10 12 11 10 8 7 8 6 6 6 6 9 8 9 7 5 6 4 5 5 9 5 6 6 6 9 7
17 17 15 16 14 10 11 10 13 12 10 11 4 7 7 5 8 14 14 14 15 14 13 12 13 10 10 6 4 8 8 8 7 9 10 7 6 5 5 6 7 7 6 7 9 6 8 9 11
18 16 17 12 17 10 13 12 12 14 11 8 10 8 3 8 9 9 8 9 9 11 4 13 13 11 9 6 5 4 7 8 9 9 11 9 8 5 5 6 7 7 8 8 8 9 10 9 10
17 15 13 13 16 12 13 14 13 15 12 5 7 6 6 4 6 6 6 7 7 6 7 6 11 12 10 7 6 4 2 4 6 6 8 11 6 5 5 6 6 8 7 9 9 9 8 8 7
15 15 15 15 16 16 13 17 19 18 10 9 11 7 5 3 8 7 6 9 9 7 7 5 3 12 12 8 4 3 3 4 4 2 7 8 5 6 6 5 6 6 6 9 8 6 5 7 6
10 14 15 18 21 19 14 16 16 18 16 11 14 13 9 6 8 8 8 10 10 9 12 9 11 12 7 6 4 0 4 4 5 5 3 7 8 8 8 6 8 9 9 8 4 4 4 5 6
15 14 18 20 13 7 9 13 20 10 12 12 8 14 13 10 7 7 9 10 10 9 10 9 9 7 6 4 5 4 3 3 3 4 3 4 7 7 7 7 7 7 8 6 4 4 4 4 4
16 19 16 15 11 9 12 15 14 10 13 16 12 7 13 12 10 6 7 10 9 8 9 10 7 6 5 5 3 1 1 4 3 3 3 3 4 6 7 6 7 6 6 6 4 6 5 5 4
20 20 14 11 10 15 15 14 13 13 14 13 7 15 12 12 10 8 7 9 10 8 8 8 8 9 8 6 3 2 2 4 3 4 6 6 5 8 10 8 8 5 7 9 9 6 8 6 4
21 19 18 16 17 13 14 15 14 15 14 10 5 16 15 14 10 10 8 7 8 7 7 7 8 7 7 6 4 3 4 3 3 1 4 5 6 6 7 9 9 10 8 9 9 10 7 9 10
20 17 15 16 14 15 14 15 18 19 19 7 8 14 14 13 12 8 9 7 7 7 7 7 7 6 6 7 5 4 5 2 3 2 3 3 2 4 7 10 10 10 10 10 12 12 12 11 10
19 14 15 15 14 13 14 12 11 9 11 11 13 14 14 12 12 8 8 7 8 6 6 7 7 6 4 3 3 5 4 4 3 3 3 3 5 6 5 5 6 9 8 12 13 9 12 12 12
18 13 13 10 13 12 16 12 13 14 15 16 14 13 12 11 10 9 7 5 10 5 5 6 6 6 6 5 4 3 5 4 4 4 5 4 5 5 5 6 5 5 5 7 9 11 16 10 13
12 8 12 9 10 14 18 15 11 10 21 20 17 15 13 10 7 7 8 5 11 6 4 3 5 6 7 6 6 6 7 6 5 6 5 4 3 4 5 3 4 4 5 3 3 5 10 13 14
16 10 6 10 10 11 15 14 16 6 15 25 19 16 13 10 8 3 7 6 5 4 2 2 5 6 6 7 8 7 7 7 7 7 6 6 4 3 4 1 4 5 5 6 4 4 4 5 7
20 18 6 6 9 6 9 7 6 14 16 20 17 15 12 9 7 5 8 8 7 7 6 6 6 8 9 8 7 7 7 5 5 6 7 5 4 4 5 5 6 5 5 5 5 4 2 4 6
17 20 16 15 13 9 8 6 6 13 13 17 17 14 11 8 6 3 4 3 5 6 7 6 6 7 7 9 7 6 6 8 8 9 8 8 7 7 9 9 7 6 6 6 5 2 4 4 5
21 12 13 9 7 10 11 18 10 19 17 16 14 13 9 6 4 5 5 6 5 6 6 6 6 7 8 8 6 6 6 7 7 8 11 10 10 11 13 11 8 7 7 6 5 3 4 5 5
11 16 13 10 10 3 3 4 4 19 17 15 12 8 6 5 5 5 5 5 5 4 4 5 7 7 7 11 6 7 6 6 8 4 2 3 6 12 20 25 14 7 6 6 3 5 5 8 9
19 19 19 10 10 12 6 3 6 14 14 12 10 9 7 5 4 5 4 5 5 6 6 7 9 7 6 7 7 6 7 6 7 6 5 1 1 2 6 15 21 12 6 7 6 5 5 7 9
Wind_Direction
257 249 241 250 240 231 244 115 60 58 18 4 307 338 43 49 40 80 55 40 331 123 131 126 116 119 118 121 130 132 133 132 129 129 127 123 120 115 111 106 106 116 124 122 119 116 116 116 111
273 277 250 272 248 250 228 99 113 68 38 288 175 167 81 71 70 78 51 57 299 125 140 132 121 124 137 138 128 132 135 133 135 132 129 129 127 124 121 115 109 113 124 131 132 130 121 118 114
257 265 273 236 236 266 80 94 79 78 78 341 11 19 46 14 55 61 64 107 162 121 146 129 128 129 138 148 131 131 131 132 134 136 134 134 132 135 133 128 131 135 142 144 144 146 132 123 118
252 235 240 258 255 86 51 70 66 326 84 5 297 83 55 69 71 77 90 121 118 129 138 141 139 138 138 150 154 142 141 142 141 142 141 143 142 144 141 138 141 147 149 153 152 143 138 128 130
245 266 257 238 261 78 59 55 46 351 75 343 335 103 95 76 88 92 98 114 132 121 126 148 144 141 142 146 153 146 150 150 149 150 150 151 151 152 149 150 154 153 149 149 173 136 132 136 145
258 254 265 238 216 100 122 81 274 333 121 53 325 92 109 98 88 96 99 115 127 120 141 145 145 144 147 152 151 148 151 151 153 153 157 156 158 159 159 165 166 162 181 150 148 138 152 147 157
261 268 272 297 60 141 182 140 224 243 160 142 320 193 115 98 105 101 113 125 123 131 139 147 162 154 148 154 155 154 155 157 158 159 163 162 161 165 168 172 179 176 159 133 151 167 180 184 168
253 279 277 272 269 247 110 129 116 268 358 79 235 322 96 111 114 122 126 122 120 124 129 149 166 168 167 167 157 155 157 160 162 167 168 167 165 172 180 188 193 174 141 143 173 177 176 161 169
272 264 263 252 206 228 120 159 160 278 276 249 184 318 30 94 137 160 149 147 148 153 142 149 172 170 172 175 164 154 156 161 165 173 180 164 187 179 181 201 163 153 144 148 179 190 198 152 153
223 251 248 343 8 327 139 156 249 229 231 242 243 212 166 130 215 210 201 174 171 165 162 154 164 175 206 191 159 175 177 181 184 188 179 201 214 186 190 187 165 162 152 161 191 187 178 189 191
235 242 281 308 33 276 290 280 258 229 254 256 296 181 68 340 284 264 257 265 176 161 163 161 161 169 199 230 153 173 183 187 192 200 194 192 210 220 186 134 154 158 168 181 185 170 187 207 223
252 252 262 292 301 294 258 267 265 260 264 294 49 37 16 330 28 27 11 6 11 150 155 161 157 164 176 236 193 175 187 187 188 196 197 185 215 214 164 154 172 179 183 195 183 187 204 214 226
267 251 260 287 288 263 274 262 268 273 285 288 87 68 36 44 44 41 21 27 6 11 57 157 155 159 157 202 261 205 204 181 189 189 196 199 194 212 180 173 179 191 195 201 199 195 193 210 218
269 271 270 288 269 259 262 260 254 248 241 105 98 139 116 92 81 60 49 50 37 9 356 2 151 154 152 166 244 302 270 307 184 191 187 193 193 179 179 199 205 216 207 202 211 198 191 197 213
273 278 281 260 254 260 255 256 251 244 212 171 159 164 130 118 88 75 58 53 46 19 50 340 163 150 149 159 200 274 319 301 292 226 168 166 190 186 203 210 213 220 245 226 220 189 199 186 214
258 260 258 256 239 232 216 258 267 217 170 177 193 158 157 100 73 76 68 68 63 41 34 42 51 63 87 112 138 298 297 341 349 356 169 176 189 207 216 219 217 217 227 249 188 183 196 206 191
246 249 247 250 215 189 181 253 238 140 156 202 207 165 153 121 96 69 78 69 68 55 59 62 60 72 107 128 134 175 233 284 316 341 16 210 204 213 221 237 243 234 225 232 210 208 190 203 205
233 235 226 249 154 222 211 227 268 192 193 227 185 170 134 130 115 99 95 83 69 67 53 56 44 27 133 130 128 162 18 330 302 272 266 190 215 218 229 249 248 250 244 244 211 207 197 207 198
264 284 286 255 202 191 216 225 241 263 261 250 204 136 141 127 129 109 78 63 68 36 53 51 55 17 16 20 24 52 201 178 216 250 282 239 203 208 221 234 240 251 252 239 240 219 204 211 212
237 250 265 276 283 294 285 274 276 270 252 239 223 139 134 128 140 118 100 75 67 61 33 51 60 50 27 18 336 14 0 0 359 2 349 305 246 227 227 228 236 240 242 251 252 236 221 214 200
249 251 253 258 279 288 293 269 259 250 247 159 125 128 131 146 133 137 108 80 72 58 32 40 28 53 61 8 359 12 327 266 227 193 220 212 312 290 232 231 230 237 237 240 245 235 211 219 219
242 233 254 260 260 259 265 266 260 131 141 166 131 129 146 136 130 127 128 119 104 49 37 18 13 8 46 40 341 349 292 306 331 290 275 251 240 217 222 232 250 259 242 235 242 230 234 210 221
249 256 260 269 281 273 260 261 255 189 163 152 140 139 136 146 136 144 121 115 97 82 45 13 352 345 349 340 317 318 307 321 310 311 311 310 270 273 273 244 243 254 237 258 275 265 228 215 226
254 256 258 251 259 252 247 251 260 237 169 157 157 144 128 133 141 146 140 110 110 105 72 35 312 332 327 313 289 270 271 276 286 287 293 278 264 284 274 324 303 293 288 247 272 304 281 234 220
218 194 231 218 217 238 245 239 226 80 169 148 149 144 137 144 159 170 76 68 62 73 55 335 353 320 310 313 307 283 270 263 265 272 269 265 261 252 268 316 311 288 304 303 277 270 285 259 262
205 208 209 226 233 257 336 225 85 82 116 127 136 138 144 148 105 69 42 29 3 6 14 12 348 335 324 307 307 305 309 296 273 271 275 270 261 256 252 228 228 249 266 273 280 281 262 294 281
191 217 227 265 281 280 251 95 109 129 119 128 135 147 136 112 91 43 21 8 3 356 348 359 339 314 310 309 293 291 285 276 279 283 280 282 278 277 264 238 235 237 238 250 268 270 293 268 278
241 200 212 229 232 233 228 226 205 166 158 151 152 141 130 125 58 10 359 7 359 344 339 332 316 314 306 292 290 289 294 309 301 291 292 289 294 290 278 264 234 240 247 238 234 256 259 282 280
203 236 237 209 216 242 256 184 26 149 158 151 147 137 167 88 31 353 346 351 326 317 321 321 307 302 310 303 327 330 326 325 309 16 35 49 3 340 360 313 280 248 274 265 268 277 276 284 280
223 216 226 223 210 219 232 139 107 138 142 150 156 195 90 54 357 322 334 333 327 337 339 327 325 292 298 314 303 285 296 303 308 309 322 190 282 287 254 305 320 315 294 275 227 237 241 248 267